QPF
0.03 0.02 0.02 0.02 0.02 0.02 0.02 0.02 0.02 0.02 0.02 0.02 0.02 0.01 0.01 0.02 0.01 0.01 0.01 0.00 0.01 0.01 0.02 0.02 0.03 0.02 0.02 0.02 0.02 0.01 0.01 0.01 0.02 0.02 0.02 0.01 0.01 0.01 0.01 0.02 0.02 0.02 0.02
0.03 0.02 0.02 0.01 0.01 0.02 0.02 0.02 0.03 0.03 0.03 0.03 0.02 0.02 0.02 0.02 0.01 0.01 0.00 0.00 0.00 0.01 0.01 0.02 0.02 0.03 0.02 0.02 0.02 0.01 0.01 0.01 0.01 0.01 0.01 0.01 0.02 0.02 0.01 0.01 0.01 0.02 0.02
0.02 0.02 0.02 0.02 0.01 0.02 0.02 0.02 0.03 0.04 0.04 0.03 0.03 0.03 0.03 0.03 0.02 0.01 0.01 0.00 0.01 0.01 0.01 0.01 0.01 0.02 0.02 0.02 0.02 0.02 0.01 0.01 0.02 0.02 0.02 0.02 0.02 0.02 0.01 0.01 0.01 0.01 0.01
0.02 0.01 0.02 0.02 0.02 0.02 0.02 0.02 0.03 0.04 0.04 0.03 0.04 0.04 0.04 0.04 0.03 0.02 0.01 0.00 0.00 0.01 0.01 0.00 0.00 0.01 0.01 0.02 0.02 0.02 0.02 0.01 0.02 0.02 0.02 0.02 0.02 0.02 0.02 0.01 0.01 0.01 0.01
0.02 0.01 0.02 0.02 0.02 0.02 0.02 0.02 0.02 0.02 0.03 0.04 0.04 0.04 0.04 0.03 0.02 0.02 0.01 0.00 0.00 0.00 0.00 0.00 0.00 0.00 0.01 0.01 0.02 0.02 0.02 0.02 0.02 0.02 0.02 0.02 0.02 0.02 0.02 0.02 0.01 0.01 0.01
0.03 0.02 0.02 0.02 0.02 0.03 0.02 0.02 0.02 0.02 0.02 0.02 0.03 0.03 0.03 0.03 0.02 0.02 0.02 0.01 0.00 0.00 0.00 0.00 0.00 0.00 0.00 0.00 0.01 0.01 0.02 0.02 0.02 0.02 0.02 0.02 0.02 0.02 0.02 0.02 0.01 0.01 0.01
0.02 0.02 0.02 0.02 0.03 0.02 0.03 0.03 0.03 0.03 0.03 0.02 0.02 0.02 0.03 0.02 0.02 0.02 0.03 0.03 0.01 0.00 0.00 0.00 0.00 0.01 0.01 0.00 0.00 0.01 0.01 0.02 0.02 0.02 0.02 0.02 0.02 0.03 0.02 0.02 0.02 0.02 0.02
0.03 0.03 0.02 0.02 0.02 0.02 0.02 0.03 0.04 0.04 0.04 0.03 0.03 0.03 0.02 0.02 0.01 0.02 0.02 0.03 0.02 0.01 0.00 0.00 0.00 0.00 0.01 0.01 0.01 0.01 0.01 0.01 0.02 0.03 0.03 0.02 0.02 0.02 0.03 0.02 0.02 0.03 0.03
0.03 0.03 0.03 0.03 0.02 0.02 0.02 0.02 0.03 0.03 0.03 0.03 0.03 0.03 0.03 0.02 0.01 0.01 0.01 0.02 0.03 0.02 0.01 0.00 0.00 0.00 0.01 0.01 0.02 0.02 0.01 0.01 0.02 0.02 0.03 0.03 0.02 0.02 0.03 0.03 0.03 0.03 0.03
0.02 0.03 0.04 0.04 0.04 0.03 0.02 0.02 0.03 0.04 0.04 0.03 0.03 0.03 0.02 0.02 0.02 0.02 0.02 0.02 0.02 0.02 0.01 0.00 0.00 0.00 0.00 0.00 0.01 0.02 0.02 0.02 0.02 0.03 0.03 0.04 0.03 0.02 0.02 0.02 0.02 0.02 0.02
0.01 0.02 0.02 0.03 0.04 0.04 0.04 0.03 0.03 0.04 0.04 0.04 0.04 0.03 0.02 0.02 0.02 0.02 0.02 0.03 0.02 0.02 0.02 0.01 0.00 0.00 0.00 0.00 0.01 0.01 0.02 0.02 0.02 0.03 0.03 0.03 0.04 0.03 0.02 0.02 0.02 0.02 0.02
0.01 0.01 0.01 0.01 0.01 0.02 0.02 0.03 0.03 0.04 0.05 0.05 0.05 0.05 0.04 0.03 0.03 0.02 0.02 0.03 0.04 0.03 0.02 0.02 0.01 0.00 0.00 0.00 0.01 0.01 0.01 0.01 0.02 0.02 0.02 0.02 0.03 0.03 0.03 0.02 0.02 0.02 0.02
0.02 0.01 0.00 0.00 0.00 0.00 0.00 0.01 0.01 0.02 0.03 0.04 0.05 0.04 0.03 0.03 0.03 0.04 0.04 0.03 0.04 0.04 0.03 0.03 0.02 0.02 0.01 0.01 0.01 0.01 0.01 0.01 0.01 0.02 0.02 0.02 0.01 0.02 0.02 0.02 0.01 0.01 0.01
0.01 0.01 0.01 0.01 0.00 0.00 0.00 0.00 0.01 0.01 0.01 0.02 0.03 0.03 0.03 0.03 0.03 0.03 0.03 0.04 0.04 0.05 0.04 0.03 0.02 0.02 0.02 0.02 0.02 0.02 0.02 0.02 0.02 0.02 0.02 0.01 0.01 0.01 0.01 0.01 0.01 0.02 0.01
0.01 0.01 0.01 0.01 0.01 0.01 0.01 0.01 0.01 0.01 0.01 0.01 0.02 0.02 0.03 0.03 0.02 0.02 0.02 0.02 0.02 0.03 0.04 0.04 0.03 0.02 0.02 0.02 0.02 0.02 0.02 0.02 0.02 0.02 0.02 0.02 0.01 0.01 0.01 0.01 0.01 0.01 0.02
0.02 0.01 0.01 0.02 0.01 0.01 0.01 0.01 0.01 0.01 0.01 0.01 0.02 0.02 0.02 0.03 0.02 0.01 0.01 0.01 0.02 0.01 0.02 0.02 0.03 0.02 0.02 0.02 0.02 0.02 0.02 0.01 0.01 0.01 0.02 0.02 0.02 0.01 0.01 0.00 0.00 0.01 0.01
0.03 0.02 0.01 0.01 0.01 0.01 0.01 0.01 0.01 0.01 0.01 0.02 0.02 0.02 0.02 0.02 0.02 0.02 0.02 0.01 0.01 0.01 0.01 0.01 0.01 0.02 0.02 0.02 0.02 0.02 0.01 0.01 0.01 0.01 0.01 0.01 0.02 0.02 0.01 0.01 0.01 0.01 0.01
0.02 0.02 0.02 0.02 0.01 0.01 0.01 0.01 0.01 0.02 0.02 0.02 0.02 0.02 0.02 0.02 0.01 0.01 0.02 0.02 0.01 0.01 0.02 0.02 0.02 0.01 0.02 0.02 0.02 0.02 0.02 0.02 0.02 0.01 0.01 0.01 0.01 0.01 0.01 0.01 0.01 0.01 0.01
0.02 0.01 0.01 0.02 0.02 0.01 0.01 0.01 0.01 0.02 0.02 0.02 0.02 0.02 0.02 0.02 0.02 0.02 0.01 0.01 0.01 0.01 0.01 0.01 0.02 0.01 0.01 0.01 0.01 0.01 0.01 0.01 0.01 0.01 0.01 0.01 0.01 0.01 0.01 0.01 0.01 0.01 0.01
0.02 0.02 0.01 0.01 0.01 0.01 0.01 0.01 0.01 0.01 0.02 0.02 0.02 0.02 0.02 0.02 0.03 0.03 0.02 0.01 0.01 0.01 0.01 0.01 0.01 0.01 0.01 0.01 0.02 0.01 0.01 0.01 0.01 0.01 0.01 0.01 0.01 0.01 0.01 0.01 0.01 0.01 0.01
0.04 0.03 0.02 0.01 0.01 0.01 0.01 0.01 0.01 0.01 0.02 0.02 0.02 0.02 0.02 0.02 0.02 0.02 0.02 0.02 0.01 0.01 0.01 0.01 0.01 0.01 0.01 0.01 0.01 0.01 0.01 0.01 0.01 0.01 0.01 0.01 0.01 0.01 0.01 0.01 0.01 0.01 0.01
0.05 0.04 0.03 0.02 0.02 0.01 0.02 0.01 0.01 0.01 0.01 0.02 0.02 0.02 0.02 0.02 0.01 0.01 0.01 0.01 0.01 0.01 0.01 0.01 0.01 0.01 0.01 0.00 0.00 0.00 0.00 0.01 0.01 0.01 0.01 0.01 0.01 0.01 0.01 0.01 0.01 0.01 0.01
0.04 0.04 0.04 0.04 0.03 0.03 0.02 0.02 0.02 0.01 0.01 0.01 0.01 0.02 0.02 0.01 0.01 0.01 0.01 0.01 0.01 0.01 0.01 0.01 0.01 0.01 0.00 0.00 0.00 0.01 0.00 0.01 0.01 0.00 0.01 0.01 0.01 0.01 0.01 0.01 0.02 0.02 0.01
0.02 0.02 0.02 0.02 0.02 0.02 0.02 0.02 0.01 0.01 0.01 0.01 0.02 0.02 0.02 0.01 0.01 0.01 0.01 0.01 0.00 0.00 0.01 0.01 0.01 0.01 0.01 0.01 0.01 0.01 0.01 0.01 0.01 0.01 0.01 0.01 0.01 0.01 0.01 0.01 0.02 0.02 0.02
0.01 0.01 0.01 0.01 0.01 0.01 0.01 0.01 0.01 0.01 0.01 0.01 0.01 0.01 0.01 0.01 0.01 0.01 0.01 0.01 0.01 0.01 0.01 0.01 0.01 0.01 0.01 0.01 0.01 0.01 0.01 0.02 0.01 0.01 0.01 0.01 0.00 0.01 0.01 0.01 0.01 0.01 0.01
0.01 0.01 0.01 0.01 0.01 0.01 0.01 0.01 0.01 0.01 0.02 0.02 0.02 0.02 0.02 0.02 0.02 0.02 0.01 0.01 0.01 0.01 0.01 0.01 0.01 0.01 0.01 0.01 0.01 0.01 0.01 0.02 0.02 0.02 0.01 0.01 0.01 0.01 0.01 0.01 0.01 0.01 0.01
MSLP
1018.71 1018.78 1018.82 1018.83 1018.83 1018.85 1018.86 1018.88 1018.88 1018.87 1018.85 1018.82 1018.81 1018.84 1018.94 1019.10 1019.32 1019.59 1019.85 1020.07 1020.22 1020.27 1020.23 1020.10 1019.92 1019.73 1019.54 1019.39 1019.27 1019.17 1019.06 1018.92 1018.73 1018.49 1018.19 1017.87 1017.54 1017.21 1016.91 1016.63 1016.37 1016.12 1015.86
1018.87 1018.94 1018.98 1018.99 1019.01 1019.04 1019.07 1019.10 1019.11 1019.10 1019.08 1019.04 1019.02 1019.03 1019.10 1019.23 1019.42 1019.65 1019.89 1020.10 1020.26 1020.34 1020.33 1020.25 1020.12 1019.96 1019.80 1019.65 1019.51 1019.38 1019.24 1019.07 1018.86 1018.61 1018.32 1018.01 1017.69 1017.38 1017.09 1016.82 1016.55 1016.27 1015.98
1019.05 1019.12 1019.17 1019.21 1019.25 1019.30 1019.35 1019.40 1019.42 1019.42 1019.40 1019.35 1019.31 1019.29 1019.31 1019.39 1019.52 1019.69 1019.89 1020.07 1020.22 1020.32 1020.34 1020.31 1020.23 1020.12 1020.00 1019.87 1019.74 1019.59 1019.44 1019.25 1019.02 1018.76 1018.47 1018.17 1017.86 1017.56 1017.28 1017.00 1016.71 1016.42 1016.10
1019.22 1019.31 1019.38 1019.45 1019.53 1019.61 1019.68 1019.75 1019.79 1019.80 1019.78 1019.73 1019.66 1019.61 1019.58 1019.59 1019.66 1019.76 1019.89 1020.02 1020.14 1020.23 1020.28 1020.29 1020.26 1020.20 1020.12 1020.02 1019.91 1019.78 1019.61 1019.41 1019.17 1018.91 1018.62 1018.32 1018.01 1017.72 1017.43 1017.14 1016.84 1016.52 1016.18
1019.39 1019.50 1019.60 1019.70 1019.81 1019.92 1020.02 1020.11 1020.18 1020.20 1020.18 1020.13 1020.05 1019.97 1019.90 1019.85 1019.84 1019.87 1019.92 1019.98 1020.05 1020.12 1020.16 1020.18 1020.19 1020.18 1020.14 1020.09 1020.01 1019.89 1019.73 1019.54 1019.30 1019.03 1018.73 1018.43 1018.12 1017.82 1017.51 1017.21 1016.90 1016.57 1016.22
1019.54 1019.66 1019.79 1019.93 1020.07 1020.21 1020.34 1020.45 1020.52 1020.56 1020.56 1020.52 1020.45 1020.35 1020.26 1020.17 1020.09 1020.04 1020.01 1019.99 1019.99 1020.00 1020.02 1020.04 1020.06 1020.07 1020.07 1020.06 1020.01 1019.92 1019.79 1019.60 1019.37 1019.10 1018.80 1018.49 1018.17 1017.85 1017.54 1017.22 1016.89 1016.55 1016.20
1019.67 1019.82 1019.97 1020.14 1020.30 1020.46 1020.60 1020.72 1020.82 1020.87 1020.89 1020.87 1020.82 1020.74 1020.63 1020.52 1020.40 1020.28 1020.17 1020.06 1019.98 1019.92 1019.89 1019.87 1019.88 1019.91 1019.93 1019.95 1019.93 1019.87 1019.77 1019.60 1019.38 1019.11 1018.82 1018.50 1018.17 1017.84 1017.51 1017.18 1016.85 1016.51 1016.16
1019.79 1019.96 1020.14 1020.32 1020.49 1020.66 1020.81 1020.94 1021.04 1021.12 1021.16 1021.17 1021.15 1021.10 1021.01 1020.89 1020.74 1020.58 1020.40 1020.22 1020.05 1019.91 1019.80 1019.74 1019.71 1019.72 1019.75 1019.78 1019.79 1019.76 1019.68 1019.54 1019.34 1019.08 1018.79 1018.47 1018.13 1017.79 1017.46 1017.13 1016.80 1016.47 1016.14
1019.90 1020.09 1020.28 1020.48 1020.66 1020.83 1020.97 1021.10 1021.20 1021.29 1021.36 1021.41 1021.43 1021.41 1021.36 1021.26 1021.11 1020.91 1020.69 1020.44 1020.20 1019.97 1019.79 1019.66 1019.58 1019.56 1019.57 1019.60 1019.62 1019.61 1019.56 1019.44 1019.26 1019.02 1018.74 1018.42 1018.09 1017.75 1017.42 1017.09 1016.78 1016.47 1016.17
1019.99 1020.20 1020.42 1020.63 1020.81 1020.97 1021.10 1021.22 1021.32 1021.41 1021.50 1021.58 1021.64 1021.67 1021.65 1021.58 1021.45 1021.25 1020.99 1020.70 1020.40 1020.10 1019.85 1019.65 1019.52 1019.45 1019.43 1019.44 1019.46 1019.46 1019.42 1019.32 1019.16 1018.94 1018.67 1018.37 1018.05 1017.72 1017.40 1017.09 1016.79 1016.51 1016.23
1020.05 1020.30 1020.54 1020.75 1020.94 1021.09 1021.20 1021.30 1021.39 1021.48 1021.58 1021.68 1021.78 1021.84 1021.87 1021.83 1021.72 1021.53 1021.27 1020.96 1020.62 1020.28 1019.98 1019.72 1019.53 1019.41 1019.35 1019.34 1019.34 1019.33 1019.29 1019.20 1019.05 1018.85 1018.60 1018.31 1018.01 1017.70 1017.39 1017.10 1016.83 1016.57 1016.32
1020.08 1020.36 1020.62 1020.84 1021.03 1021.17 1021.27 1021.36 1021.44 1021.52 1021.62 1021.73 1021.84 1021.94 1021.99 1021.98 1021.90 1021.74 1021.49 1021.18 1020.83 1020.48 1020.14 1019.84 1019.61 1019.45 1019.35 1019.29 1019.26 1019.23 1019.18 1019.08 1018.94 1018.75 1018.51 1018.24 1017.95 1017.66 1017.37 1017.10 1016.85 1016.62 1016.39
1020.06 1020.36 1020.64 1020.88 1021.07 1021.21 1021.31 1021.38 1021.45 1021.52 1021.62 1021.73 1021.84 1021.94 1022.01 1022.03 1021.98 1021.84 1021.62 1021.33 1021.00 1020.65 1020.31 1020.00 1019.75 1019.55 1019.41 1019.31 1019.24 1019.17 1019.09 1018.97 1018.82 1018.62 1018.39 1018.13 1017.85 1017.58 1017.31 1017.05 1016.82 1016.60 1016.39
1019.98 1020.30 1020.60 1020.84 1021.04 1021.19 1021.29 1021.37 1021.43 1021.50 1021.58 1021.68 1021.78 1021.88 1021.95 1021.98 1021.94 1021.83 1021.65 1021.40 1021.11 1020.79 1020.47 1020.18 1019.92 1019.70 1019.53 1019.38 1019.26 1019.15 1019.02 1018.87 1018.69 1018.48 1018.24 1017.98 1017.71 1017.44 1017.18 1016.93 1016.70 1016.49 1016.30
1019.86 1020.19 1020.48 1020.74 1020.95 1021.10 1021.22 1021.31 1021.38 1021.45 1021.53 1021.61 1021.69 1021.77 1021.82 1021.84 1021.81 1021.73 1021.58 1021.38 1021.15 1020.88 1020.61 1020.34 1020.09 1019.87 1019.67 1019.50 1019.33 1019.16 1018.98 1018.79 1018.57 1018.32 1018.06 1017.79 1017.51 1017.24 1016.98 1016.74 1016.51 1016.30 1016.10
1019.71 1020.02 1020.31 1020.57 1020.79 1020.97 1021.11 1021.22 1021.31 1021.38 1021.45 1021.52 1021.57 1021.62 1021.65 1021.66 1021.62 1021.56 1021.45 1021.30 1021.12 1020.92 1020.70 1020.48 1020.26 1020.04 1019.83 1019.63 1019.42 1019.20 1018.97 1018.72 1018.46 1018.18 1017.89 1017.60 1017.30 1017.02 1016.75 1016.49 1016.25 1016.03 1015.83
1019.53 1019.82 1020.10 1020.35 1020.58 1020.78 1020.96 1021.10 1021.21 1021.30 1021.37 1021.42 1021.45 1021.46 1021.46 1021.44 1021.40 1021.34 1021.26 1021.16 1021.03 1020.89 1020.74 1020.57 1020.39 1020.19 1019.98 1019.76 1019.52 1019.26 1018.99 1018.70 1018.40 1018.08 1017.76 1017.44 1017.12 1016.82 1016.52 1016.25 1015.99 1015.75 1015.54
1019.33 1019.59 1019.85 1020.10 1020.35 1020.57 1020.78 1020.95 1021.09 1021.20 1021.27 1021.31 1021.32 1021.30 1021.27 1021.22 1021.17 1021.11 1021.04 1020.98 1020.90 1020.81 1020.71 1020.60 1020.46 1020.29 1020.09 1019.87 1019.62 1019.34 1019.03 1018.71 1018.38 1018.04 1017.70 1017.35 1017.01 1016.68 1016.36 1016.05 1015.77 1015.51 1015.28
1019.11 1019.34 1019.59 1019.84 1020.09 1020.34 1020.57 1020.78 1020.94 1021.07 1021.14 1021.18 1021.17 1021.13 1021.07 1020.99 1020.92 1020.86 1020.80 1020.76 1020.71 1020.67 1020.62 1020.55 1020.45 1020.31 1020.14 1019.92 1019.67 1019.39 1019.09 1018.76 1018.41 1018.06 1017.70 1017.34 1016.98 1016.62 1016.27 1015.94 1015.63 1015.34 1015.09
1018.85 1019.07 1019.31 1019.57 1019.83 1020.09 1020.35 1020.57 1020.76 1020.90 1020.98 1021.00 1020.98 1020.92 1020.83 1020.74 1020.65 1020.58 1020.53 1020.49 1020.47 1020.46 1020.44 1020.40 1020.33 1020.23 1020.08 1019.89 1019.66 1019.40 1019.11 1018.79 1018.46 1018.11 1017.76 1017.39 1017.02 1016.65 1016.28 1015.91 1015.57 1015.26 1014.98
1018.55 1018.78 1019.02 1019.28 1019.56 1019.83 1020.10 1020.33 1020.52 1020.66 1020.74 1020.76 1020.73 1020.65 1020.55 1020.45 1020.35 1020.26 1020.21 1020.18 1020.17 1020.17 1020.16 1020.14 1020.10 1020.02 1019.90 1019.75 1019.55 1019.32 1019.07 1018.78 1018.48 1018.16 1017.82 1017.46 1017.10 1016.71 1016.33 1015.95 1015.58 1015.23 1014.93
1018.22 1018.46 1018.72 1019.00 1019.28 1019.55 1019.81 1020.04 1020.23 1020.36 1020.43 1020.44 1020.40 1020.32 1020.21 1020.10 1019.99 1019.90 1019.84 1019.80 1019.79 1019.78 1019.78 1019.77 1019.74 1019.68 1019.59 1019.46 1019.31 1019.12 1018.91 1018.68 1018.42 1018.14 1017.83 1017.50 1017.14 1016.77 1016.38 1015.99 1015.60 1015.24 1014.91
1017.86 1018.14 1018.43 1018.71 1018.99 1019.26 1019.50 1019.71 1019.87 1019.98 1020.03 1020.03 1019.99 1019.90 1019.80 1019.69 1019.58 1019.49 1019.42 1019.37 1019.34 1019.32 1019.31 1019.29 1019.25 1019.20 1019.13 1019.04 1018.92 1018.78 1018.62 1018.44 1018.24 1018.00 1017.74 1017.44 1017.11 1016.76 1016.38 1015.99 1015.60 1015.23 1014.89
1017.54 1017.85 1018.15 1018.44 1018.71 1018.95 1019.16 1019.33 1019.46 1019.54 1019.58 1019.56 1019.51 1019.43 1019.34 1019.23 1019.13 1019.04 1018.96 1018.89 1018.84 1018.80 1018.76 1018.72 1018.67 1018.62 1018.56 1018.49 1018.40 1018.31 1018.20 1018.06 1017.91 1017.73 1017.51 1017.25 1016.96 1016.63 1016.28 1015.90 1015.53 1015.16 1014.82
1017.29 1017.62 1017.92 1018.20 1018.44 1018.64 1018.81 1018.93 1019.02 1019.07 1019.08 1019.05 1019.00 1018.93 1018.85 1018.75 1018.66 1018.56 1018.48 1018.39 1018.32 1018.24 1018.17 1018.10 1018.04 1017.97 1017.91 1017.85 1017.79 1017.72 1017.65 1017.56 1017.45 1017.31 1017.14 1016.93 1016.67 1016.38 1016.07 1015.72 1015.37 1015.03 1014.70
1017.15 1017.47 1017.75 1017.99 1018.19 1018.34 1018.45 1018.52 1018.57 1018.58 1018.56 1018.53 1018.48 1018.42 1018.35 1018.27 1018.19 1018.09 1018.00 1017.90 1017.79 1017.69 1017.58 1017.49 1017.40 1017.31 1017.25 1017.19 1017.14 1017.09 1017.04 1016.98 1016.91 1016.80 1016.66 1016.49 1016.28 1016.03 1015.75 1015.46 1015.14 1014.83 1014.53
Thickness
5659 5659 5660 5661 5662 5663 5665 5667 5669 5670 5671 5672 5673 5674 5673 5673 5672 5670 5669 5668 5668 5666 5665 5664 5662 5661 5660 5659 5657 5656 5655 5654 5652 5651 5650 5649 5648 5647 5647 5646 5645 5644 5644
5654 5654 5655 5656 5657 5658 5660 5662 5664 5664 5665 5666 5667 5667 5667 5667 5667 5665 5664 5662 5661 5660 5659 5658 5656 5655 5654 5653 5651 5650 5649 5647 5646 5645 5644 5643 5642 5641 5640 5639 5639 5638 5637
5648 5648 5649 5650 5651 5652 5654 5656 5657 5658 5658 5659 5659 5660 5660 5660 5660 5659 5658 5656 5654 5653 5652 5651 5649 5648 5647 5646 5645 5643 5642 5641 5639 5639 5638 5637 5636 5635 5633 5633 5632 5631 5631
5642 5642 5643 5644 5645 5646 5648 5649 5650 5650 5650 5651 5651 5652 5652 5652 5652 5652 5651 5650 5648 5647 5645 5644 5642 5641 5640 5639 5638 5636 5635 5633 5632 5631 5630 5630 5629 5628 5627 5626 5625 5625 5624
5634 5635 5636 5637 5639 5640 5641 5642 5642 5642 5642 5642 5643 5644 5644 5645 5645 5645 5644 5643 5642 5640 5639 5637 5636 5634 5633 5631 5630 5629 5628 5626 5625 5624 5623 5623 5622 5621 5620 5619 5619 5618 5617
5628 5628 5629 5630 5632 5633 5633 5634 5634 5634 5634 5634 5635 5636 5636 5637 5637 5637 5636 5635 5634 5633 5632 5630 5629 5627 5625 5624 5622 5621 5620 5619 5617 5616 5616 5615 5615 5614 5614 5613 5612 5610 5609
5621 5622 5623 5623 5624 5625 5625 5626 5626 5625 5625 5626 5625 5624 5626 5628 5629 5629 5628 5627 5627 5626 5625 5623 5622 5620 5618 5616 5614 5613 5612 5611 5610 5609 5608 5608 5608 5608 5607 5606 5605 5603 5602
5614 5615 5616 5616 5617 5617 5617 5618 5618 5617 5617 5618 5617 5615 5614 5615 5618 5621 5620 5619 5619 5618 5617 5616 5614 5612 5610 5609 5606 5604 5603 5602 5602 5601 5601 5601 5601 5600 5600 5599 5597 5596 5595
5606 5607 5607 5608 5608 5609 5609 5610 5610 5610 5608 5609 5610 5609 5607 5606 5606 5609 5611 5611 5610 5609 5608 5608 5606 5604 5603 5601 5599 5596 5595 5594 5593 5593 5592 5592 5592 5592 5591 5591 5589 5588 5587
5597 5599 5599 5599 5600 5600 5601 5602 5602 5602 5601 5600 5601 5602 5602 5603 5600 5598 5599 5600 5601 5600 5599 5599 5598 5596 5594 5592 5590 5588 5587 5585 5585 5584 5584 5584 5583 5584 5583 5582 5581 5580 5579
5588 5590 5591 5591 5591 5592 5593 5593 5593 5593 5593 5593 5593 5593 5594 5594 5594 5591 5589 5589 5589 5590 5590 5590 5588 5587 5585 5583 5581 5580 5578 5576 5575 5575 5575 5575 5574 5574 5574 5573 5572 5571 5570
5579 5580 5583 5583 5583 5583 5584 5584 5585 5585 5585 5585 5585 5585 5585 5585 5585 5584 5582 5580 5579 5580 5580 5580 5579 5578 5576 5574 5572 5570 5568 5567 5566 5565 5566 5565 5565 5564 5563 5563 5562 5561 5560
5569 5571 5573 5574 5574 5575 5575 5576 5576 5576 5576 5576 5576 5576 5577 5577 5577 5576 5574 5572 5570 5570 5570 5569 5569 5568 5566 5564 5562 5560 5558 5557 5556 5556 5556 5555 5555 5553 5552 5552 5551 5551 5550
5561 5562 5564 5565 5565 5565 5566 5566 5566 5566 5566 5567 5567 5566 5566 5567 5567 5566 5564 5561 5558 5558 5558 5558 5559 5558 5556 5554 5552 5550 5549 5547 5546 5545 5545 5544 5544 5543 5542 5541 5541 5540 5539
5553 5553 5554 5554 5554 5555 5556 5556 5556 5556 5556 5556 5556 5556 5556 5556 5556 5555 5554 5552 5548 5546 5547 5548 5547 5547 5545 5543 5541 5540 5539 5537 5536 5535 5534 5533 5532 5531 5531 5530 5530 5529 5527
5545 5544 5544 5544 5545 5545 5545 5546 5546 5546 5546 5546 5546 5545 5545 5545 5544 5544 5542 5541 5539 5537 5535 5537 5536 5535 5534 5532 5530 5529 5528 5527 5526 5525 5524 5523 5522 5521 5520 5520 5519 5517 5516
5536 5535 5535 5535 5535 5535 5535 5536 5536 5536 5536 5536 5535 5535 5534 5534 5532 5531 5530 5529 5527 5525 5524 5525 5524 5524 5522 5521 5520 5519 5518 5517 5516 5514 5513 5512 5511 5510 5509 5509 5508 5506 5505
5527 5526 5526 5525 5525 5525 5526 5526 5526 5526 5526 5526 5525 5524 5523 5522 5520 5519 5517 5516 5515 5513 5512 5512 5511 5510 5510 5509 5509 5508 5507 5506 5505 5503 5502 5501 5500 5499 5498 5497 5497 5496 5494
5518 5517 5517 5516 5516 5516 5516 5517 5516 5516 5515 5515 5515 5513 5512 5510 5508 5507 5506 5504 5503 5502 5500 5499 5499 5498 5497 5497 5496 5495 5495 5494 5493 5492 5491 5490 5488 5487 5486 5485 5484 5483 5482
5508 5507 5508 5507 5507 5507 5507 5507 5506 5505 5504 5504 5504 5502 5500 5499 5497 5495 5494 5492 5491 5489 5488 5487 5486 5485 5484 5484 5482 5481 5481 5481 5481 5480 5479 5478 5477 5476 5474 5473 5472 5471 5470
5499 5498 5498 5497 5497 5496 5496 5496 5495 5494 5493 5492 5492 5490 5489 5488 5486 5484 5483 5480 5478 5476 5475 5474 5474 5473 5472 5470 5470 5470 5468 5468 5468 5467 5466 5465 5465 5464 5462 5461 5460 5459 5457
5489 5488 5487 5487 5486 5486 5486 5485 5484 5482 5481 5480 5480 5479 5478 5477 5475 5473 5471 5470 5468 5465 5463 5462 5462 5461 5461 5460 5459 5458 5455 5453 5453 5454 5451 5452 5451 5450 5450 5449 5448 5447 5445
5480 5478 5477 5477 5475 5475 5475 5474 5473 5472 5470 5469 5469 5468 5467 5465 5463 5461 5460 5459 5457 5455 5454 5453 5452 5452 5451 5450 5447 5446 5443 5441 5440 5439 5435 5437 5437 5437 5437 5437 5436 5434 5433
5471 5469 5468 5467 5466 5466 5465 5464 5463 5461 5459 5459 5458 5458 5456 5454 5452 5450 5448 5447 5445 5445 5444 5443 5443 5443 5440 5438 5435 5433 5431 5428 5427 5424 5421 5422 5423 5424 5425 5424 5423 5422 5420
5461 5460 5459 5458 5457 5456 5455 5454 5453 5450 5449 5449 5449 5448 5446 5444 5443 5441 5438 5436 5435 5434 5433 5432 5432 5430 5428 5426 5423 5419 5416 5412 5413 5412 5408 5407 5409 5409 5411 5412 5411 5408 5406
5452 5451 5450 5449 5447 5446 5445 5444 5443 5441 5440 5440 5439 5437 5436 5434 5433 5430 5427 5425 5423 5423 5421 5420 5419 5417 5415 5413 5410 5407 5404 5400 5398 5398 5396 5393 5393 5392 5395 5399 5397 5395 5392